Regional Weather Roundup
Issued by NWS

Home | Current Version | Previous Version | Graphics & Text | Print | Product List | Glossary On
Versions: 1 2 3 4 5 6 7 8 9 10 11 12 13 14 15 16 17 18 19 20 21 22 23 24 25 26 27 28 29 30 31 32 33 34 35 36 37 38 39 40 41 42 43 44 45 46 47 48 49 50
000
ASUS43 KBIS 072002
RWRND

NORTH DAKOTA REGIONAL WEATHER ROUNDUP
NATIONAL WEATHER SERVICE BISMARCK ND
300 PM CDT TUE JUL 07 2015

NOTE: "FAIR" INDICATES FEW OR NO CLOUDS BELOW 12,000 FEET WITH NO
SIGNIFICANT WEATHER AND/OR OBSTRUCTIONS TO VISIBILITY.


NDZ001>003-009>011-017-072100-
NORTHWEST NORTH DAKOTA

CITY           SKY/WX    TMP DP  RH WIND       PRES   REMARKS
WILLISTON      MOSUNNY   80  51  36 S9G16     30.01F
MINOT          PTSUNNY   72  53  51 S10       30.04F HAZE
$$

NDZ018>021-031>035-040>046-072100-
SOUTHWEST NORTH DAKOTA

CITY           SKY/WX    TMP DP  RH WIND       PRES   REMARKS
BISMARCK       SUNNY     73  56  54 S14       30.08F
DICKINSON      PTSUNNY   75  58  55 S18G24    30.02F
GARRISON         N/A     73  58  59 S13       30.05F
HETTINGER ARPT PTSUNNY   76  57  51 S12G23    30.04F
$$

NDZ004>008-012>016-024-026-027-054-072100-
NORTHEAST NORTH DAKOTA

CITY           SKY/WX    TMP DP  RH WIND       PRES   REMARKS
GRAND FORKS    MOSUNNY   72  44  36 S6G16     30.10F
GRND FRKS AFB  SUNNY     72  46  39 SW9       30.10F
DEVILS LAKE    SUNNY     70  45  40 SW12      30.08F
$$

NDZ022-023-025-028>030-036>039-047>053-072100-
SOUTHEAST NORTH DAKOTA

CITY           SKY/WX    TMP DP  RH WIND       PRES   REMARKS
FARGO          SUNNY     72  44  36 S7        30.12F
JAMESTOWN      SUNNY     71  45  39 S12       30.11F
$$



USA.gov is the U.S. government's official web portal to all federal, state and local government web resources and services.